EDT,Max TemperatureF,Mean TemperatureF,Min TemperatureF,Max Dew PointF,MeanDew PointF,Min DewpointF,Max Humidity, Mean Humidity, Min Humidity, Max Sea Level PressureIn, Mean Sea Level PressureIn, Min Sea Level PressureIn, Max VisibilityMiles, Mean VisibilityMiles, Min VisibilityMiles, Max Wind SpeedMPH, Mean Wind SpeedMPH, Max Gust SpeedMPH,PrecipitationIn, CloudCover, Events, WindDirDegrees
2013-4-1,46,37,28,40,23,11,85,60,35,30.05,29.87,29.66,10,8,1,22,14,31,0.04,7,Snow,299
2013-4-2,38,30,21,23,16,9,81,55,29,30.19,30.14,30.06,10,8,1,22,9,29,0.02,6,Snow,273
2013-4-3,37,29,21,17,13,10,74,55,35,30.45,30.34,30.20,10,10,7,24,9,31,T,3,Snow,321
2013-4-4,54,36,17,15,9,4,77,45,13,30.42,30.21,29.97,10,10,10,12,5,16,0.00,5,,174
2013-4-5,48,37,26,30,20,12,69,52,35,30.22,30.05,29.93,10,10,10,22,10,28,0.00,4,,315
2013-4-6,55,38,21,22,14,7,81,48,15,30.31,30.19,29.97,10,10,10,17,7,23,0.00,6,,136
2013-4-7,73,57,41,43,34,15,76,50,24,30.03,29.89,29.82,10,10,10,29,13,39,0.00,6,,228
2013-4-8,73,53,33,49,41,31,92,66,40,30.06,29.96,29.87,10,9,5,25,9,32,0.01,6,Thunderstorm,166
2013-4-9,77,61,44,54,48,41,89,65,40,30.11,30.00,29.88,10,9,5,20,9,25,T,6,Rain-Thunderstorm,254
2013-4-10,77,61,45,63,54,44,96,75,53,29.92,29.88,29.79,10,7,0,35,9,46,1.10,8,Rain-Thunderstorm,277
2013-4-11,55,49,43,52,47,43,100,92,83,29.92,29.81,29.60,10,4,0,22,9,29,0.25,8,Fog-Rain-Thunderstorm,40
2013-4-12,58,49,39,57,45,32,100,83,65,29.86,29.63,29.47,10,8,1,25,12,36,0.37,8,Rain,212
2013-4-13,44,38,32,34,31,26,79,69,58,30.04,29.91,29.84,10,10,10,22,12,31,T,7,Rain,249
2013-4-14,54,42,29,34,30,26,85,63,41,30.16,30.08,30.02,10,10,10,14,6,18,T,6,,171
2013-4-15,69,59,48,48,42,33,67,54,40,30.07,30.02,29.97,10,10,10,20,10,28,0.00,6,,148
2013-4-16,73,61,49,58,51,46,100,79,57,30.21,30.08,30.01,10,9,5,23,10,30,0.04,7,Fog-Rain,208
2013-4-17,68,56,44,51,41,35,100,65,30,30.30,30.21,30.09,10,9,3,13,6,18,0.00,6,Fog,54
2013-4-18,84,72,59,59,55,52,84,61,37,30.07,29.86,29.70,10,10,9,24,14,32,0.00,7,,173
2013-4-19,72,56,39,58,44,27,86,66,46,29.86,29.62,29.42,10,9,2,28,17,45,0.12,8,Rain,224
2013-4-20,45,36,27,30,25,20,75,60,45,30.43,30.11,29.86,10,10,8,25,13,35,T,6,Rain-Snow,273
2013-4-21,50,37,23,28,23,18,88,59,29,30.63,30.54,30.45,10,10,10,15,6,18,0.00,4,,63
2013-4-22,63,49,35,32,27,22,70,50,29,30.48,30.37,30.27,10,10,10,17,10,22,0.00,2,,123
2013-4-23,72,56,39,34,32,25,70,48,25,30.27,30.12,29.92,10,10,10,17,9,23,0.00,3,,151
2013-4-24,61,49,36,55,43,33,93,64,34,30.16,29.86,29.72,10,6,1,25,10,32,0.75,8,Rain,226
2013-4-25,54,43,32,38,32,29,100,71,41,30.36,30.24,30.15,10,10,8,28,8,37,0.05,4,Rain,219
2013-4-26,58,43,28,37,30,25,100,64,28,30.50,30.43,30.37,10,10,8,10,2,16,0.00,2,Fog,209
2013-4-27,72,54,35,37,30,28,82,51,20,30.41,30.30,30.14,10,10,8,16,7,20,0.00,3,,124
2013-4-28,58,54,50,54,47,36,96,70,43,30.12,30.01,29.93,10,6,2,16,10,23,0.35,7,Rain,129
2013-4-29,64,58,52,56,53,48,93,83,72,30.01,29.96,29.92,10,8,2,14,7,18,0.19,8,Rain,162
2013-4-30,73,63,53,54,52,49,100,74,47,30.17,30.09,30.01,10,7,1,17,9,23,0.00,5,,134